Voltar ao catálogo

CZ-4 DEB

AtivoSSO
NORAD 26449·DEBRIS·🇨🇳 China

Lançado Oct 14, 1999 de Taiyuan Satellite Launch Center

Loading…

Próximas Passagens (próximas 24 horas)

TLE

AtualizadoSource: Space-Track

Época: Sep 14, 2026, 02:59 UTC

1 26449U 99057KW  26257.12463875  .00000779  00000-0  20036-3 0  9990
2 26449  98.5036 325.0198 0076233 330.5336  58.1001 14.51391416391463

Acompanhe CZ-4 DEB em tempo real com AllMySat

Download on the App Store